Location: Andrea Ville Subdivision
(14.3485°N, 120.9580°E)
Time: 02:06:21
(UTC+00:00)

Meteor 2-15 - Pass Details

Date: 13 January 2026
Orbit: 935 x 955 km, 82.5° (Epoch: 15 February)

Event Time Altitude Azimuth Distance (km) Brightness Sun altitude
Rises 10:52:14 0° 354° (N) 3,610 7.3 -16.0°
Reaches altitude 10° 10:54:44 10° 354° (N) 2,662 6.7 -16.6°
Maximum altitude 11:00:49 85° 266° (W) 949 4.4 -18.0°
Drops below altitude 10° 11:06:52 10° 178° (S) 2,646 7.0 -19.4°
Sets 11:09:21 0° 178° (S) 3,587 7.7 -19.9°
